Location: Vienna
(48.2082°N, 16.3738°E)
Time: 09:11:59
(UTC+01:00)

ISS - Visible Passes

Search period start: 15 December 2017 00:00
Search period end: 25 December 2017 00:00
Orbit: 402 x 407 km, 51.6° (Epoch: 15 December)

Date Brightness Start Highest point End Pass type
(mag) Time Alt. Az. Time Alt. Az. Time Alt. Az.
15 Dec -1.1 17:57:21 10° W 17:59:49 19° SW 18:02:15 10° S visible
16 Dec -1.9 17:04:44 10° W 17:07:43 31° SW 17:10:40 10° SSE visible
18 Dec -0.7 16:57:12 10° W 16:59:21 16° SW 17:01:30 10° S visible
